EW8836 Weather Reports


time (UTC)temp
F
wind
direction
speed
knots
gust
knots
rain 1hr
in
rain 24hr
in
rain mn
in
humidity
%
barometer
mb
20260504214547 53 231 2.6 6.1 0.02 0.85 0.84 98 1009.3
20260504213058 53 219 0.9 3.5 0.04 0.85 0.84 98 1009.6
20260504211621 53 219 0.0 2.6 0.06 0.84 0.83 98 1009.7
20260504210057 53 229 0.9 4.3 0.06 0.83 0.83 97 1009.9
20260504204549 53 230 0.0 2.6 0.06 0.83 0.82 97 1010.1
20260504203117 54 234 0.9 5.2 0.06 0.82 0.80 97 1010.4
20260504201553 54 247 0.9 6.1 0.06 0.80 0.78 96 1010.4
20260504200050 55 159 3.5 7.0 0.05 0.79 0.77 95 1010.2
20260504194549 55 214 6.1 10.4 0.04 0.83 0.76 95 1010.1
20260504193057 56 221 0.9 7.0 0.02 0.81 0.74 93 1009.0
20260504191553 56 173 1.7 7.0 0.00 0.80 0.72 92 1009.0
20260504190126 57 297 0.9 5.2 0.00 0.80 0.72 91 1008.8
20260504184553 58 314 0.0 5.2 0.00 0.80 0.72 92 1008.6
20260504183102 58 278 0.0 1.7 0.01 0.80 0.72 93 1008.6
20260504181557 58 309 0.0 1.7 0.02 0.80 0.72 94 1008.7
20260504180117 58 131 0.0 0.9 0.02 0.80 0.72 94 1008.7
20260504174554 58 354 0.0 0.9 0.02 0.89 0.72 94 1008.8
20260504173055 58 3 0.0 0.9 0.02 0.88 0.72 94 1008.9
20260504171551 58 233 0.0 4.3 0.01 0.87 0.71 92 1009.1
20260504140107 66 298 0.0 3.5 0.00 0.87 0.70 78 1009.8
20260504130112 62 286 0.0 0.9 0.00 0.87 0.70 85 1010.3
20260504100104 55 60 0.0 0.0 0.00 0.87 0.70 99 1011.8
20260504090105 53 56 0.0 0.9 0.01 0.87 0.70 100 1011.9
20260504081548 53 56 0.0 0.0 0.10 0.86 0.69 100 1012.0
20260504080113 52 55 0.0 0.0 0.13 0.86 0.69 100 1012.1
20260504070105 52 224 0.0 0.9 0.07 0.73 0.56 100 1011.8
20260504050104 52 224 0.0 0.0 0.06 0.61 0.39 99 1011.3
20260504044552 52 224 0.0 0.0 0.05 0.64 0.37 99 1011.3
20260504043053 52 224 0.0 0.9 0.03 0.62 0.35 99 1011.3
20260504041605 52 225 0.0 0.9 0.02 0.60 0.33 99 1011.4
20260504040105 52 225 0.0 0.9 0.03 0.60 0.33 99 1011.5
20260504034553 53 226 0.0 0.0 0.05 0.59 0.32 99 1011.5
20260504033049 53 63 0.0 0.0 0.07 0.59 0.32 99 1011.7
20260504031549 53 63 0.0 0.0 0.09 0.57 0.31 99 1011.8
20260504030106 53 63 0.0 0.0 0.09 0.56 0.30 99 1011.8
20260504024609 54 63 0.0 0.0 0.07 0.54 0.28 99 1011.9
20260504023103 54 63 0.0 0.0 0.06 0.52 0.25 99 1011.9
20260504021556 54 63 0.0 0.0 0.06 0.50 0.23 99 1011.9
20260504020106 54 63 0.0 0.9 0.07 0.48 0.21 99 1012.0
20260504014607 54 63 0.0 0.0 0.08 0.46 0.20 99 1012.0
20260504013101 54 63 0.0 0.0 0.09 0.46 0.19 99 1012.0
20260504011559 54 63 0.0 0.0 0.10 0.43 0.17 99 1012.1
20260504004605 54 63 0.0 0.0 0.08 0.39 0.12 99 1012.4
20260504003101 54 63 0.0 0.0 0.06 0.36 0.09 98 1012.4
20260504001550 55 63 0.0 0.0 0.04 0.33 0.06 99 1012.4
20260504000139 54 63 0.0 0.0 0.02 0.31 0.05 98 1012.6
20260503234558 54 63 0.0 0.0 0.02 0.31 0.04 98 1012.8
20260503233107 55 63 0.0 0.0 0.01 0.30 0.03 98 1012.9
20260503231557 55 63 0.0 0.0 0.01 0.28 0.02 98 1013.0
20260503230053 55 63 0.0 0.0 0.02 0.28 0.02 98 1013.0
20260503224545 55 63 0.0 0.0 0.03 0.28 0.02 98 1013.0
20260503223105 55 45 0.0 1.7 0.03 0.28 0.02 98 1013.2
20260503221606 55 267 0.0 0.0 0.02 0.28 0.02 98 1013.2
20260503220003 55 266 0.0 0.9 0.01 0.27 0.00 98 1013.3